Location: Alto Pass Reservoir
(37.5801°N, 89.3084°W)
Time: 16:53:58
(UTC+00:00)

Cosmos 2298 Rocket - Pass Details

Date: 13 July 2022
Orbit: 775 x 784 km, 74.0° (Epoch: 18 August)

Event Time Altitude Azimuth Distance (km) Brightness Sun altitude
Rises 07:23:09 0° 344° (NNW) 3,279 8.0 -27.7°
Reaches altitude 10° 07:25:34 10° 347° (NNW) 2,346 7.2 -27.5°
Maximum altitude 07:30:53 67° 71° (ENE) 845 4.2 -27.1°
Enters shadow 07:31:30 62° 110° (ESE) 881 4.2 -27.1°
